Starlink 5546

operational
NORAD ID: 55632 Int'l Des: 2023-021 Owner: SPXS Country: US Constellation: starlink
LEOCIRCULAR

Starlink 5546について

説明を読み込み中...

リアルタイム位置

3D地球を読み込み中...

次回通過

高度履歴

Altitude vs Time

uPlot chart will show altitude changes over time

軌道要素

1 55632U 23021E 25305.61514060 .00000904 00000-0 83534-4 0 9997
2 55632 69.9977 167.3861 0002838 268.4546 91.6288 14.98326738149119
Epoch: Nov 1, 2025 • Age: 12 hours

現在のステータス

高度 584.8 km
速度 7.57 km/s
衛星直下点 66.30°N, 145.32°E
打ち上げ日 Feb 17, 2023
運用期間 2.7 years
タイプ internet

技術仕様

分類 Payload
質量 305.00 kg
乾燥質量 290.00 kg
総質量 305.00 kg
長さ 0.20 m
直径 2.80 m
スパン 9.00 m
形状 Box + pan
製造者 SPXS
バスタイプ Starlink
フェーズステータス In Orbit
所有者/国 SPXS/US

大規模コンステレーション

Loading constellations...